Regional Weather Roundup
Issued by NWS Sioux Falls, SD

Home | Current Version | Previous Version | Text Only | Print | Product List | Glossary On
Versions: 1 2 3 4 5 6 7 8 9 10 11 12 13 14 15 16 17 18 19 20 21 22 23 24 25 26 27 28 29 30 31 32 33 34 35 36 37 38 39 40 41 42 43 44 45 46 47 48 49 50
457
ASUS43 KFSD 162202
RWRFSD

WEATHER ROUNDUP FOR SE SOUTH DAKOTA/SW MINNESOTA/NW IOWA
NATIONAL WEATHER SERVICE SIOUX FALLS SD
400 PM CST TUE JAN 16 2018

NOTE: "FAIR" INDICATES FEW OR NO CLOUDS BELOW 12,000 FEET WITH NO
SIGNIFICANT WEATHER AND OR OBSTRUCTIONS TO VISIBILITY.


SDZ038>040-050-052>070-162300-
SOUTHEAST SOUTH DAKOTA

CITY           SKY/WX    TMP DP  RH WIND       PRES   REMARKS
BROOKINGS      SUNNY      9   0  67 W7        30.58F WCI  -2
CHAMBERLAIN    SUNNY     15   3  58 S10       30.57F WCI   2
HURON          SUNNY      9  -1  64 S9        30.61F WCI  -4
MADISON        FAIR       5   0  78 W7        30.59F WCI  -7
MITCHELL       SUNNY      8  -2  63 S8        30.65F WCI  -4
SIOUX FALLS    SUNNY      6   0  76 W7        30.63F WCI  -6
WINNER         FAIR      17   3  54 S10       30.52F WCI   5
YANKTON        SUNNY      9  -1  64 W7        30.67F WCI  -2
$$

MNZ071-072-080-081-089-090-097-098-162300-
SOUTHWEST MINNESOTA

CITY           SKY/WX    TMP DP  RH WIND       PRES   REMARKS
FAIRMONT       CLEAR      4  -2  76 W9        30.65S WCI -10
JACKSON        CLEAR      7   1  78 W8        30.61S WCI  -6
LUVERNE        SUNNY      5   0  78 NW8       30.63F WCI  -8
MARSHALL       CLEAR      8   0  69 CALM      30.63F
MONTEVIDEO     CLEAR     10   0  61 CALM      30.64F
PIPESTONE      SUNNY      5   0  78 NW7       30.58F WCI  -7
REDWOOD FALLS  CLEAR      3  -4  72 W9        30.64F WCI -12
WINDOM         CLEAR      7  -8  51 W9        30.61S WCI  -7
WORTHINGTON    CLEAR      6   0  76 W9        30.61F WCI  -8
$$

IAZ001>003-012>014-020>022-031-032-NEZ013-014-SDZ071-162300-
NORTHWEST IOWA

CITY           SKY/WX    TMP DP  RH WIND       PRES   REMARKS
CHEROKEE       SUNNY      8   1  76 W8        30.67S WCI  -5
DENISON        SUNNY      7   0  72 W7        30.69S WCI  -5
ESTHERVILLE    CLEAR      6   0  76 NW9       30.62F WCI  -8
LE MARS        SUNNY      9   1  72 W7        30.67F WCI  -3
ORANGE CITY    SUNNY      9   3  78 NW7       30.63F WCI  -3
SHELDON        SUNNY      5   0  78 W8        30.62F WCI  -8
SIOUX CITY     SUNNY     10   1  67 NW9       30.69F WCI  -3
SPENCER        SUNNY      7  -1  70 W10       30.63F WCI  -8
STORM LAKE     SUNNY      5   0  78 W10       30.63S WCI -10
$$

ABBREVIATIONS USED IN REMARKS
   TC - TEMPERATURE IN CELSIUS
  WCI - WIND CHILL INDEX
   HX - HEAT INDEX
  VSB - VISIBILITY





USA.gov is the U.S. government's official web portal to all federal, state and local government web resources and services.